2015 HM1
ephemeris date magn radius delta ra dec elong phase
Today5 Sep 202627.91.072 AU1.762 AU13h00m-03°17'33.2°31.0°
2015 HM1 - 2026-09-05
astro.vanbuitenen.nl


 
-1 year
-1 month
-1 day
Now
+1 day
+1 month
+1 year

The interactive orbit chart above shows the body's path through the solar system and its position at the given date. Green and blue lines are shown perpendicular to the ecliptic plane: Green if the path is above the ecliptic plane, blue if it is below. (Left-click and drag to rotate the view; Right-click and drag to move the view; Use scroll wheel to zoom in our out.)

The orbital elements of 2015 HM1 are:

            e (Eccentricity)                : 0.1822433
            a (Semimajor axis)              : 1.0849295
            i (Inclination)                 : 18.74584
            Ω (Longitude of ascending node) : 211.94234
            ω (Argument of perihelion)      : 111.68757
            M (Mean anomaly)                : 207.54170
            Epoch                           : 2026 Jun 09

            L (Longitude of perihelion)     : 144.72354
            B (Latitude of perihelion)      : 17.37484
            P (Orbital period in years)     : 1.13            
        

The light curve chart below shows the estimated development of the minor planet's magnitude.


The all-sky chart below shows the path of the minor planet over the same period as the light curve. The current position is marked yellow.





The following chart shows the path of the minor planet in the next few days. The field of view is optimized for (~10x50) binoculars and finderscopes.




Ephemerides:
Date       Time       RA (2000)    DEC (2000)    delta   radius  elong  phase   PA    magn
2026-09-05 00:00 UT   13 00 22.1   -03 17 54     1.762    1.072   33.2   31.0   108   27.9 
2026-09-05 18:11 UT   13 02 55.8   -03 25 58     1.761    1.069   33.1   31.0   108   27.9 
2026-09-06 00:00 UT   13 03 45.1   -03 28 32     1.761    1.069   33.1   31.0   108   27.9 
2026-09-07 00:00 UT   13 07 08.7   -03 39 09     1.759    1.065   33.0   31.0   107   27.9 
2026-09-08 00:00 UT   13 10 33.1   -03 49 46     1.757    1.062   32.9   31.0   107   27.9 
2026-09-09 00:00 UT   13 13 58.2   -04 00 21     1.755    1.059   32.8   31.0   107   27.9 
2026-09-10 00:00 UT   13 17 23.9   -04 10 56     1.753    1.056   32.7   31.0   106   27.9 
2026-09-11 00:00 UT   13 20 50.4   -04 21 30     1.751    1.053   32.6   31.0   106   27.9 
2026-09-12 00:00 UT   13 24 17.7   -04 32 02     1.749    1.050   32.5   31.0   106   27.8 
2026-09-13 00:00 UT   13 27 45.7   -04 42 32     1.747    1.047   32.4   31.0   105   27.8 
2026-09-14 00:00 UT   13 31 14.4   -04 53 01     1.745    1.044   32.3   31.0   105   27.8 


    Terminology:
            
    delta:  distance between minor planet and earth in AU
    radius: distance between minor planet and sun in AU
    magn:   magnitude (brightness) estimate    
    ra:     right ascension in hours (24h = 360deg)
    dec:    declination in degrees
    elong:  elongation in degrees (angle sun-earth-minor planet)    
    phase:  phase angle in degrees (angle sun-minor planet-earth)        
    AU:     Astronomical Unit (mean distance between earth and sun: 149597870.7 km
    

Orbital elements provided by the MPC (Minor Planet Center).
Calculations by a modified version of AAPlus, a C# implementation of the AA+ project by PJ Naughter from the algorithms presented in the book "Astronomical Algorithms" by Jean Meeus.
NGC2000 dso catalog and star labels from VizieR as provided by the Strasbourg astronomical Data Center.
Tycho2 catalog from the ESO archive.